sat.trackr.live / text

‹ back to catalog

STARLINK-5897

NORAD 55931 · 2023-037T

PAYLOAD ACTIVE UNKNOWN

§ Identity

Operator
Country
US
Launch date
2023-03-17
Launch site
AFWTR
Launch vehicle
Mass (kg)
RCS (m²)

Purposes: comms

External: N2YO · Heavens-Above · Gunter

§ Orbital elements

Epoch: 2026-05-25T03:27:04.014144Z

Period
96.11 min
Inclination
69.9993°
Eccentricity
0.0003945
Mean motion
14.98331217 rev/d
Perigee alt
569.3 km
Apogee alt
574.8 km
Semi-major
6,950.2 km
B*
-1.2085e-4
RAAN
111.5141°
Arg perigee
268.0876°
Mean anomaly
91.9831°
Rev number
17,494

§ Raw data

STARLINK-58971 55931U 23037T   26145.14379646 -.00001535  00000+0 -12085-3 0  99902 55931  69.9993 111.5141 0003945 268.0876  91.9831 14.98331217174947

JSON: /api/v1/satellites/55931 · /tle

For live sub-satellite position, see the globe view (requires WebGL).

§ Visibility from observer

Set your observer location to see the next 7 days of passes ≥ 10°. The values pass through the URL so the page stays shareable.

No JS? Fill the form by hand. The geolocation button needs JavaScript.